Home   Weather   Nanaimo   Past weeks

Flag for Canada Past Weather in Nanaimo, British Columbia, Canada — Yesterday and Last 2 Weeks

Now
35 °F

Chilly.


Feels Like: 23 °F
Forecast: 33 / 39 °F
Wind: 21 mph from Southeast

Location: Entrance Island

Current Time: Dec 9, 2016 at 9:21:08 pm

Latest Report: Dec 9, 2016 at 8:00 pm


Visibility: N/A

Pressure: 29.79 "Hg

Humidity: 97%

Dew Point: 34 °F

Location of NanaimoLocation

Past Weather in Nanaimo — Graph

°F

Nanaimo Temperature Yesterday

Maximum temperature yesterday: 37 °F (at 6:00 pm)
Minimum temperature yesterday: 29 °F (at 8:00 am)
Average temperature yesterday: 33 °F

High & Low Weather Summary for the Past Weeks

 TemperatureHumidityPressure
High49 °F (Dec 3, 1:00 pm)100% (Nov 26, 11:00 am)30.50 "Hg (Nov 26, 11:00 am)
Low29 °F (Dec 8, 8:00 am)39% (Dec 7, 1:00 pm)29.40 "Hg (Nov 27, 7:00 pm)
Average42 °F80%29.99 "Hg
* Reported Nov 24 8:00 pm — Dec 9 8:00 pm, Nanaimo, Weather by CustomWeather, © 2016

Note: Actual official high and low records may vary slightly from our data, if they occured in-between our weather recording intervals... More about our weather records

Advertising

Nanaimo Weather History for the Previous 24 Hours

Scroll right to see more
 ConditionsComfort  
Time TempWeatherWind HumidityBarometerVisibility
8:00 pm
Fri, Dec 9
35 °FChilly.21 mph97%29.79 "HgN/A
7:00 pm37 °FChilly.23 mph95%29.79 "HgN/A
6:00 pm37 °FChilly.26 mph94%29.80 "HgN/A
5:00 pm37 °FChilly.25 mph92%29.84 "HgN/A
4:00 pm37 °FChilly.23 mph95%29.87 "HgN/A
3:00 pm35 °FChilly.25 mph100%29.89 "HgN/A
2:00 pm35 °FChilly.23 mph96%29.90 "HgN/A
1:00 pm36 °FChilly.23 mph96%29.92 "HgN/A
12:00 pm35 °FChilly.22 mph95%29.94 "HgN/A
11:00 am35 °FChilly.20 mph97%29.95 "HgN/A
10:00 am34 °FChilly.25 mph97%29.95 "HgN/A
9:00 am34 °FChilly.23 mph96%29.96 "HgN/A
8:00 am34 °FChilly.23 mph90%29.96 "HgN/A
7:00 am34 °FChilly.25 mph92%29.95 "HgN/A
6:00 am34 °FChilly.24 mph89%29.96 "HgN/A
5:00 am35 °FChilly.24 mph81%29.96 "HgN/A
4:00 am33 °FChilly.25 mph85%29.97 "HgN/A
3:00 am33 °FChilly.23 mph86%29.98 "HgN/A
2:00 am36 °FChilly.24 mph77%29.97 "HgN/A
1:00 am36 °FChilly.25 mph61%29.96 "HgN/A
12:00 am39 °FChilly.22 mph54%29.96 "HgN/A
11:00 pm
Thu, Dec 8
37 °FChilly.25 mph53%29.94 "HgN/A
10:00 pm37 °FChilly.21 mph57%29.96 "HgN/A
9:00 pm36 °FChilly.21 mph55%29.96 "HgN/A
Weather by CustomWeather, © 2016

See weather overviewHow to use our weather pages